Location: Hylvaty SDH
(49.9612°N, 16.4057°E)
Time: 20:52:12
(UTC+01:00)

Vanguard 1 Rocket - Pass Details

Date: 05 October 2020
Orbit: 656 x 4221 km, 34.3° (Epoch: 30 October)

Event Time Altitude Azimuth Distance (km) Brightness Sun altitude
Rises 17:12:16 0° 226° (SW) 4,287 12.2 10.3°
Reaches altitude 10° 17:14:57 10° 216° (SW) 3,659 11.6 9.9°
Maximum altitude 17:23:39 35° 155° (SSE) 3,194 10.2 8.5°
Drops below altitude 10° 17:38:42 10° 99° (E) 6,326 11.1 6.2°
Sets 17:45:16 0° 93° (E) 7,841 11.5 5.2°
